Location: Newark
(58.8333°N, 23.5833°E)
Time: 10:30:11
(UTC+00:00)

CUTE 1.7 + AOD 2 - Visible Passes

Search period start: 15 December 2019 00:00
Search period end: 25 December 2019 00:00
Orbit: 593 x 612 km, 97.6° (Epoch: 14 December)

Date Brightness Start Highest point End Pass type
(mag) Time Alt. Az. Time Alt. Az. Time Alt. Az.
15 Dec ? 03:26:06 10° NNE 03:30:00 34° E 03:33:53 10° SSE visible
15 Dec ? 05:01:54 10° N 05:05:55 43° WNW 05:09:58 10° SW visible
15 Dec ? 14:26:55 10° SSE 14:31:05 73° ENE 14:35:19 10° NNW visible
15 Dec ? 16:04:15 10° SW 16:07:23 20° W 16:10:33 10° NW visible
16 Dec ? 03:38:01 10° NNE 03:42:05 42° E 03:46:08 10° S visible
16 Dec ? 05:13:59 10° N 05:17:52 35° WNW 05:21:45 10° SW visible
16 Dec ? 14:38:53 10° SSE 14:43:06 90° NW 14:47:20 10° NNW visible
16 Dec ? 16:16:51 10° SW 16:19:32 16° W 16:22:15 10° NW visible
17 Dec ? 03:49:57 10° NNE 03:54:09 53° E 03:58:19 10° S visible
17 Dec ? 05:26:05 10° N 05:29:47 30° WNW 05:33:30 10° WSW visible
17 Dec ? 14:50:55 10° S 14:55:06 73° WSW 14:59:21 10° NNW visible
17 Dec ? 16:29:40 10° WSW 16:31:43 13° W 16:33:46 10° NW visible
18 Dec ? 02:27:44 10° ENE 02:29:32 12° E 02:31:19 10° ESE visible
18 Dec ? 04:01:56 10° NNE 04:06:11 66° ESE 04:10:26 10° S visible
18 Dec ? 05:38:13 10° N 05:41:42 25° WNW 05:45:10 10° WSW visible
18 Dec ? 15:03:00 10° S 15:07:08 58° WSW 15:11:20 10° NNW visible
18 Dec ? 16:43:01 10° W 16:43:54 11° W 16:44:48 10° WNW visible
19 Dec ? 02:39:10 10° NE 02:41:43 15° E 02:44:15 10° ESE visible
19 Dec ? 04:13:56 10° NNE 04:18:13 82° ESE 04:22:29 10° SSW visible
19 Dec ? 05:50:23 10° N 05:53:35 21° NW 05:56:48 10° WSW visible
19 Dec ? 15:15:09 10° S 15:19:12 46° W 15:23:17 10° NNW visible
20 Dec ? 02:50:49 10° NE 02:53:52 19° E 02:56:55 10° SE visible
20 Dec ? 04:25:56 10° NNE 04:30:13 80° WNW 04:34:30 10° SSW visible
20 Dec ? 06:02:35 10° N 06:05:27 18° NW 06:08:21 10° W visible
20 Dec ? 15:27:22 10° SSW 15:31:16 37° W 15:35:13 10° NNW visible
21 Dec ? 03:02:34 10° NE 03:06:01 23° E 03:09:27 10° SE visible
21 Dec ? 04:37:59 10° NNE 04:42:13 65° WNW 04:46:27 10° SSW visible
21 Dec ? 06:14:50 10° NNW 06:17:19 15° NW 06:19:49 10° W visible
21 Dec ? 15:39:39 10° SSW 15:43:22 30° W 15:47:07 10° NNW visible
22 Dec ? 03:14:24 10° NNE 03:18:08 28° E 03:21:51 10° SSE visible
22 Dec ? 04:50:02 10° N 04:54:11 52° WNW 04:58:21 10° SW visible
22 Dec ? 15:52:01 10° SW 15:55:29 24° W 15:58:58 10° NW visible
23 Dec ? 03:26:17 10° NNE 03:30:14 35° E 03:34:10 10° SSE visible
23 Dec ? 05:02:06 10° N 05:06:09 42° WNW 05:10:11 10° SW visible
23 Dec ? 14:27:05 10° SSE 14:31:18 75° ENE 14:35:33 10° NNW visible
23 Dec ? 16:04:30 10° SW 16:07:37 20° W 16:10:45 10° NW visible
24 Dec ? 03:38:12 10° NNE 03:42:18 43° E 03:46:24 10° S visible
24 Dec ? 05:14:11 10° N 05:18:05 35° WNW 05:21:58 10° SW visible
24 Dec ? 14:39:04 10° SSE 14:43:17 88° WSW 14:47:34 10° NNW visible
24 Dec ? 16:17:06 10° SW 16:19:46 16° W 16:22:26 10° NW visible
